OBJECT PG

Last updated on Fri Aug 17 2018 00:15:07 GMT+0000 (Coordinated Universal Time)

1 43595U 98067PG 18228.71500363 -.00000481 00000-0 00000+0 0 9995 2 43595 51.6396 77.0575 0003638 61.0075 299.0719 15.54290726 152
UTC large
Height (km)
Speed (km/s)
/
Latitude / Longitude
Inclination (degrees)
Orbital Period (minutes)
Azimuth
Elevation
Range (km)
Doppler Factor

Next 0 passes for location: London (51.5072 / 0.1276)

Sorry there are no passes over London.